N0YWB Weather Reports


time (UTC)temp
C
wind
direction
speed
KPH
gust
KPH
rain 1hr
cm
rain 24hr
cm
rain mn
cm
humidity
%
barometer
mb
20260906095021 20 0.0 0.0 0.00 0.00 0.00 99 1019.6
20260906094023 20 0.0 0.0 0.00 0.00 0.00 99 1019.4
20260906093021 21 270 0.0 4.8 0.00 0.00 0.00 99 1019.3
20260906092043 21 0.0 0.0 0.00 0.00 0.00 99 1019.3
20260906091026 21 0.0 0.0 0.00 0.00 0.00 99 1019.2
20260906090023 21 270 0.0 4.8 0.00 0.00 0.00 99 1019.1
20260906085019 21 0.0 0.0 0.00 0.00 0.00 99 1018.9
20260906084036 21 0.0 0.0 0.00 0.00 0.00 99 1019.1
20260906083018 21 0.0 0.0 0.00 0.00 0.00 99 1019.1
20260906082021 21 0.0 0.0 0.00 0.00 0.00 99 1019.1
20260906081024 21 270 0.0 1.6 0.00 0.00 0.00 99 1019.1
20260906080026 22 0.0 0.0 0.00 0.00 0.00 99 1019.2
20260906075029 22 0.0 0.0 0.00 0.00 0.00 99 1019.2
20260906074031 22 270 0.0 4.8 0.00 0.00 0.00 99 1019.3
20260906073016 22 225 0.0 4.8 0.00 0.00 0.00 99 1019.4
20260906072019 22 0.0 1.6 0.00 0.00 0.00 99 1019.5
20260906071021 22 270 0.0 1.6 0.00 0.00 0.00 99 1019.4
20260906070024 22 270 0.0 1.6 0.00 0.00 0.00 99 1019.5
20260906065027 22 0.0 0.0 0.00 0.00 0.00 99 1019.4
20260906064049 22 0.0 0.0 0.00 0.00 0.00 99 1019.5
20260906063032 22 0.0 0.0 0.00 0.00 0.00 99 1019.5
20260906062016 22 0.0 0.0 0.00 0.00 0.00 99 1019.6
20260906061019 22 0.0 0.0 0.00 0.00 0.00 99 1019.6
20260906060021 22 0.0 0.0 0.00 0.00 0.00 99 1019.4
20260906055018 22 0.0 0.0 0.00 0.00 0.00 99 1019.6
20260906054027 22 0.0 0.0 0.00 0.00 0.00 99 1019.5
20260906053029 22 0.0 0.0 0.00 0.00 0.00 99 1019.5
20260906052032 22 0.0 0.0 0.00 0.00 0.00 99 1019.4
20260906051016 23 0.0 0.0 0.00 0.00 0.00 99 1019.3
20260906050019 23 0.0 0.0 0.00 0.00 0.00 99 1019.2
20260906045022 23 0.0 0.0 0.00 0.00 0.00 99 1019.2
20260906044025 23 225 0.0 1.6 0.00 0.00 0.00 99 1019.1
20260906043027 23 270 0.0 1.6 0.00 0.00 0.00 99 1019.1
20260906042110 23 0.0 0.0 0.00 0.00 0.00 99 1019.2
20260906041015 23 0.0 0.0 0.00 0.00 0.00 99 1019.0
20260906040037 23 0.0 0.0 0.00 0.00 0.00 99 1019.1
20260906035020 23 0.0 1.6 0.00 0.00 0.00 99 1019.2
20260906034043 23 0.0 0.0 0.00 0.00 0.00 99 1019.1
20260906033026 23 270 0.0 1.6 0.00 0.00 0.00 99 1019.0
20260906032028 23 0.0 1.6 0.00 0.00 0.00 99 1018.8
20260906031025 24 0.0 0.0 0.00 0.00 0.00 99 1018.6
20260906030036 24 248 0.0 1.6 0.00 0.00 0.00 99 1018.6
20260906025039 24 261 0.0 4.8 0.00 0.00 0.00 99 1018.5
20260906024015 24 0.0 0.0 0.00 0.00 0.00 99 1018.3
20260906023024 24 0.0 0.0 0.00 0.00 0.00 99 1018.1
20260906022027 24 0.0 0.0 0.00 0.00 0.00 99 1018.0
20260906021150 24 0.0 0.0 0.00 0.00 0.00 99 1017.9
20260906020032 25 0.0 0.0 0.00 0.00 0.00 98 1017.7
20260906015017 25 0.0 0.0 0.00 0.00 0.00 97 1017.7
20260906014020 25 0.0 0.0 0.00 0.00 0.00 96 1017.6
20260906013023 25 0.0 0.0 0.00 0.00 0.00 95 1017.5
20260906012045 26 270 0.0 3.2 0.00 0.00 0.00 94 1017.4
20260906011028 26 246 1.6 4.8 0.00 0.00 0.00 93 1017.2
20260906010031 26 259 0.0 1.6 0.00 0.00 0.00 93 1017.2
20260906005036 26 221 0.0 4.8 0.00 0.00 0.00 92 1017.2
20260906004018 27 273 4.8 8.0 0.00 0.00 0.00 92 1017.2
20260906003021 27 269 4.8 8.0 0.00 0.00 0.00 92 1017.3
20260906002044 28 263 4.8 8.0 0.00 0.00 0.00 91 1017.2
20260906001026 28 268 4.8 9.7 0.00 0.00 0.00 90 1017.0
20260906000023 28 268 6.4 9.7 0.00 0.00 0.00 90 1017.0
20260905235019 29 230 4.8 8.0 0.00 0.00 0.00 89 1016.8
20260905234016 30 249 3.2 8.0 0.00 0.00 0.00 89 1016.7
20260905233039 30 258 4.8 8.0 0.00 0.00 0.00 89 1016.6
20260905232022 30 260 6.4 8.0 0.00 0.00 0.00 88 1016.5
20260905231104 30 274 4.8 9.7 0.00 0.00 0.00 86 1016.5
20260905230027 31 287 6.4 9.7 0.00 0.00 0.00 84 1016.5
20260905225050 31 271 4.8 9.7 0.00 0.00 0.00 83 1016.3
20260905224015 31 269 6.4 9.7 0.00 0.00 0.00 82 1016.3
20260905223018 32 263 6.4 11.3 0.00 0.00 0.00 81 1016.3
20260905222020 32 274 4.8 8.0 0.00 0.00 0.00 80 1016.2
20260905221043 33 263 4.8 6.4 0.00 0.00 0.00 79 1016.0
20260905220046 33 241 4.8 8.0 0.00 0.00 0.00 78 1016.2
20260905215028 33 241 4.8 8.0 0.00 0.00 0.00 78 1016.3
20260905214051 33 230 6.4 8.0 0.00 0.00 0.00 76 1016.3
20260905213016 32 225 6.4 8.0 0.00 0.00 0.00 77 1016.3
20260905212018 33 224 6.4 12.9 0.00 0.00 0.00 79 1016.3
20260905211022 33 248 8.0 14.5 0.00 0.00 0.00 78 1016.5
20260905210023 33 256 4.8 8.0 0.00 0.00 0.00 77 1016.5
20260905205020 33 205 6.4 8.0 0.00 0.00 0.00 79 1016.5
20260905204017 34 285 4.8 6.4 0.00 0.00 0.00 76 1016.6
20260905203052 34 250 4.8 6.4 0.00 0.00 0.00 77 1016.7
20260905202016 33 239 4.8 8.0 0.00 0.00 0.00 78 1016.8
20260905201020 33 172 4.8 8.0 0.00 0.00 0.00 77 1016.8
20260905200022 33 239 4.8 8.0 0.00 0.00 0.00 77 1016.9
20260905195024 33 247 4.8 8.0 0.00 0.00 0.00 78 1017.2
20260905194027 33 263 4.8 6.4 0.00 0.00 0.00 79 1017.4
20260905193030 33 237 4.8 8.0 0.00 0.00 0.00 79 1017.5
20260905192033 32 170 4.8 8.0 0.00 0.00 0.00 80 1017.6
20260905191017 32 213 3.2 6.4 0.00 0.00 0.00 81 1017.6
20260905190020 32 249 4.8 8.0 0.00 0.00 0.00 80 1017.7
20260905185023 32 255 4.8 8.0 0.00 0.00 0.00 80 1017.7
20260905184025 32 234 4.8 6.4 0.00 0.00 0.00 82 1017.8
20260905183028 32 228 4.8 6.4 0.00 0.00 0.00 82 1017.8
20260905182030 31 255 3.2 6.4 0.00 0.00 0.00 83 1017.7
20260905181035 31 258 4.8 8.0 0.00 0.00 0.00 84 1017.8
20260905180017 31 236 4.8 8.0 0.00 0.00 0.00 83 1017.8
20260905175020 31 257 4.8 8.0 0.00 0.00 0.00 83 1017.6
20260905174017 31 236 4.8 9.7 0.00 0.00 0.00 84 1017.7
20260905173026 31 270 4.8 6.4 0.00 0.00 0.00 85 1017.7
20260905172029 31 241 4.8 9.7 0.00 0.00 0.00 85 1017.7
20260905171032 31 243 3.2 8.0 0.00 0.00 0.00 85 1017.8
20260905170016 31 256 3.2 8.0 0.00 0.00 0.00 83 1017.9
20260905165019 31 213 4.8 8.0 0.00 0.00 0.00 82 1017.9
20260905164102 31 233 4.8 8.0 0.00 0.00 0.00 84 1017.9
20260905163025 31 233 3.2 4.8 0.00 0.00 0.00 85 1017.9
20260905162027 31 275 3.2 6.4 0.00 0.00 0.00 85 1017.9
20260905161031 31 215 4.8 8.0 0.00 0.00 0.00 87 1017.9
20260905160015 31 250 3.2 6.4 0.00 0.00 0.00 87 1018.0
20260905155018 31 252 1.6 8.0 0.00 0.00 0.00 87 1017.8
20260905154020 31 184 1.6 3.2 0.00 0.00 0.00 88 1017.7
20260905153023 30 237 1.6 4.8 0.00 0.00 0.00 88 1017.7
20260905152026 30 235 1.6 4.8 0.00 0.00 0.00 89 1017.6
20260905151028 30 232 1.6 4.8 0.00 0.00 0.00 89 1017.5
20260905150045 30 261 1.6 3.2 0.00 0.00 0.00 90 1017.4
20260905145016 29 225 1.6 4.8 0.00 0.00 0.00 92 1017.0
20260905144019 29 257 1.6 6.4 0.00 0.00 0.00 92 1017.1
20260905143015 28 176 1.6 6.4 0.00 0.00 0.00 95 1017.1
20260905142044 27 166 3.2 6.4 0.00 0.00 0.00 98 1016.9
20260905141027 27 181 1.6 6.4 0.00 0.00 0.00 99 1017.0
20260905140030 26 166 1.6 4.8 0.00 0.00 0.00 99 1016.9
20260905135033 25 0.0 0.0 0.00 0.00 0.00 99 1016.9
20260905134017 25 0.0 0.0 0.00 0.00 0.00 99 1016.9
20260905133020 25 169 1.6 6.4 0.00 0.00 0.00 99 1016.9
20260905132023 25 0.0 1.6 0.00 0.00 0.00 99 1016.7
20260905131026 24 180 0.0 3.2 0.00 0.00 0.00 99 1016.5
20260905130028 24 180 0.0 1.6 0.00 0.00 0.00 99 1016.5
20260905125031 24 0.0 0.0 0.00 0.00 0.00 99 1016.2
20260905124016 24 0.0 0.0 0.00 0.00 0.00 99 1016.2
20260905123019 23 0.0 0.0 0.00 0.00 0.00 99 1016.1
20260905122022 23 0.0 0.0 0.00 0.00 0.00 99 1016.0
20260905121024 22 0.0 0.0 0.00 0.00 0.00 99 1016.0
20260905120027 22 0.0 0.0 0.00 0.00 0.00 99 1015.8
20260905115024 22 0.0 0.0 0.00 0.00 0.00 99 1015.8
20260905114020 22 0.0 0.0 0.00 0.00 0.00 99 1015.8
20260905113037 22 0.0 0.0 0.00 0.00 0.00 99 1015.8
20260905112020 22 0.0 0.0 0.00 0.00 0.00 99 1015.8
20260905111023 22 0.0 0.0 0.00 0.00 0.00 99 1015.6
20260905110026 22 0.0 0.0 0.00 0.00 0.00 99 1015.8
20260905105049 22 0.0 0.0 0.00 0.00 0.00 99 1015.8
20260905104032 22 0.0 0.0 0.00 0.00 0.00 99 1015.7
20260905103016 22 0.0 0.0 0.00 0.00 0.00 99 1015.6
20260905102039 23 0.0 0.0 0.00 0.00 0.00 99 1015.5
20260905101022 23 0.0 0.0 0.00 0.00 0.00 99 1015.6
20260905100024 23 0.0 0.0 0.00 0.00 0.00 99 1015.5